TimeEST,TemperatureF,Dew PointF,Humidity,Sea Level PressureIn,VisibilityMPH,Wind Direction,Wind SpeedMPH,Gust SpeedMPH,PrecipitationIn,Events,Conditions,WindDirDegrees,DateUTC
12:53 AM,48.9,37.9,66,30.01,10.0,NNW,5.8,-,N/A,,Partly Cloudy,330,2013-03-03 05:53:00
1:53 AM,48.0,37.9,68,30.01,10.0,NNW,5.8,-,N/A,,Partly Cloudy,340,2013-03-03 06:53:00
2:53 AM,48.0,39.0,71,29.99,10.0,NW,4.6,-,N/A,,Mostly Cloudy,320,2013-03-03 07:53:00
3:53 AM,48.9,39.9,71,29.98,10.0,WNW,3.5,-,N/A,,Mostly Cloudy,290,2013-03-03 08:53:00
4:53 AM,48.0,39.9,74,29.97,10.0,NW,5.8,-,N/A,,Overcast,310,2013-03-03 09:53:00
5:53 AM,48.9,37.9,66,29.99,10.0,WNW,6.9,-,N/A,,Mostly Cloudy,290,2013-03-03 10:53:00
6:53 AM,46.9,37.9,71,30.00,10.0,WNW,6.9,-,N/A,,Mostly Cloudy,300,2013-03-03 11:53:00
7:53 AM,46.9,37.0,68,30.02,10.0,WNW,13.8,-,N/A,,Scattered Clouds,300,2013-03-03 12:53:00
8:53 AM,48.9,33.1,54,30.04,10.0,NW,11.5,-,N/A,,Scattered Clouds,310,2013-03-03 13:53:00
9:53 AM,53.1,35.1,50,30.05,10.0,WNW,15.0,-,N/A,,Scattered Clouds,300,2013-03-03 14:53:00
10:53 AM,55.9,34.0,44,30.04,10.0,NW,13.8,-,N/A,,Scattered Clouds,310,2013-03-03 15:53:00
11:53 AM,59.0,35.1,41,30.03,10.0,WNW,13.8,26.5,N/A,,Scattered Clouds,290,2013-03-03 16:53:00
12:53 PM,61.0,35.1,38,30.01,10.0,West,18.4,26.5,N/A,,Scattered Clouds,280,2013-03-03 17:53:00
1:53 PM,59.0,36.0,42,29.99,10.0,WNW,18.4,-,N/A,,Scattered Clouds,300,2013-03-03 18:53:00
2:53 PM,61.0,37.0,41,29.99,10.0,WNW,21.9,26.5,N/A,,Scattered Clouds,300,2013-03-03 19:53:00
3:53 PM,60.1,36.0,41,29.99,10.0,WNW,17.3,26.5,N/A,,Scattered Clouds,290,2013-03-03 20:53:00
4:53 PM,59.0,36.0,42,30.01,10.0,WNW,19.6,26.5,N/A,,Mostly Cloudy,290,2013-03-03 21:53:00
5:53 PM,55.9,37.0,49,30.02,10.0,WNW,19.6,27.6,N/A,,Mostly Cloudy,300,2013-03-03 22:53:00
6:53 PM,55.0,37.9,53,30.05,10.0,WNW,16.1,-,N/A,,Mostly Cloudy,300,2013-03-03 23:53:00
7:53 PM,53.1,37.9,57,30.07,10.0,West,11.5,-,N/A,,Partly Cloudy,280,2013-03-04 00:53:00
8:53 PM,52.0,39.0,61,30.10,10.0,West,12.7,-,N/A,,Partly Cloudy,280,2013-03-04 01:53:00
9:53 PM,50.0,39.0,66,30.12,10.0,WNW,9.2,-,N/A,,Partly Cloudy,300,2013-03-04 02:53:00
10:53 PM,48.9,37.9,66,30.14,10.0,WNW,10.4,-,N/A,,Partly Cloudy,290,2013-03-04 03:53:00
11:53 PM,48.0,37.9,68,30.14,10.0,NW,9.2,-,N/A,,Partly Cloudy,320,2013-03-04 04:53:00